TimeCST,TemperatureF,Dew PointF,Humidity,Sea Level PressureIn,VisibilityMPH,Wind Direction,Wind SpeedMPH,Gust SpeedMPH,PrecipitationIn,Events,Conditions,WindDirDegrees,DateUTC
12:51 AM,42.1,30.0,62,30.11,10.0,WSW,12.7,-,N/A,,Mostly Cloudy,240,2013-01-06 06:51:00
1:51 AM,41.0,30.0,65,30.11,10.0,WSW,16.1,23.0,N/A,,Mostly Cloudy,250,2013-01-06 07:51:00
2:51 AM,39.0,28.9,67,30.12,10.0,West,13.8,-,N/A,,Partly Cloudy,270,2013-01-06 08:51:00
3:51 AM,37.0,28.0,70,30.12,10.0,West,13.8,-,N/A,,Partly Cloudy,280,2013-01-06 09:51:00
4:51 AM,34.0,27.0,75,30.13,10.0,West,9.2,-,N/A,,Scattered Clouds,280,2013-01-06 10:51:00
5:51 AM,34.0,26.1,73,30.16,10.0,WNW,10.4,-,N/A,,Scattered Clouds,290,2013-01-06 11:51:00
5:58 AM,33.8,26.6,75,30.14,10.0,WNW,15.0,23.0,N/A,,Mostly Cloudy,290,2013-01-06 11:58:00
6:51 AM,33.1,23.0,66,30.19,10.0,WNW,18.4,24.2,N/A,,Overcast,290,2013-01-06 12:51:00
7:51 AM,32.0,21.9,66,30.22,10.0,WNW,9.2,23.0,N/A,,Overcast,300,2013-01-06 13:51:00
8:51 AM,33.1,21.9,64,30.25,10.0,WNW,19.6,24.2,N/A,,Overcast,290,2013-01-06 14:51:00
9:51 AM,33.1,21.9,64,30.28,10.0,WNW,13.8,27.6,N/A,,Overcast,300,2013-01-06 15:51:00
10:51 AM,33.1,21.9,64,30.30,7.0,WNW,17.3,-,N/A,,Overcast,290,2013-01-06 16:51:00
11:51 AM,34.0,21.9,61,30.30,7.0,WNW,17.3,26.5,N/A,,Mostly Cloudy,290,2013-01-06 17:51:00
12:22 PM,35.6,21.2,56,30.27,6.0,WNW,20.7,-,N/A,,Haze,290,2013-01-06 18:22:00
12:51 PM,35.1,21.9,59,30.29,6.0,WNW,13.8,-,N/A,,Haze,290,2013-01-06 18:51:00
1:51 PM,36.0,21.9,57,30.31,7.0,WNW,15.0,23.0,N/A,,Partly Cloudy,300,2013-01-06 19:51:00
2:51 PM,37.0,21.0,52,30.33,10.0,NW,11.5,-,N/A,,Partly Cloudy,310,2013-01-06 20:51:00
3:51 PM,36.0,21.0,55,30.35,8.0,West,12.7,-,N/A,,Partly Cloudy,280,2013-01-06 21:51:00
4:51 PM,33.1,19.9,59,30.37,10.0,WNW,8.1,-,N/A,,Partly Cloudy,290,2013-01-06 22:51:00
5:51 PM,30.0,19.0,64,30.40,10.0,WNW,5.8,-,N/A,,Clear,290,2013-01-06 23:51:00
6:51 PM,28.9,19.0,67,30.41,10.0,West,4.6,-,N/A,,Clear,280,2013-01-07 00:51:00
7:51 PM,27.0,19.0,72,30.41,10.0,Calm,Calm,-,N/A,,Clear,0,2013-01-07 01:51:00
8:51 PM,28.9,19.0,67,30.41,10.0,Calm,Calm,-,N/A,,Clear,0,2013-01-07 02:51:00
9:51 PM,27.0,19.0,72,30.41,10.0,Calm,Calm,-,N/A,,Clear,0,2013-01-07 03:51:00
10:51 PM,26.1,19.0,75,30.42,10.0,SW,3.5,-,N/A,,Clear,220,2013-01-07 04:51:00
11:51 PM,25.0,18.0,75,30.43,10.0,Calm,Calm,-,N/A,,Clear,0,2013-01-07 05:51:00